SCP
0 0 0 0 0 0 0 0 0 0 0 0 0 0 0 0 0 0 0 0 0 0 0 0 0 0 0 0 0 0 0 0 0 0 0 0 0 0 0 0 0 0 0
0 0 0 0 0 0 0 0 0 0 0 0 0 0 0 0 0 0 0 0 0 0 0 0 0 0 0 0 0 0 0 0 0 0 0 0 0 0 0 0 0 0 0
0 0 0 0 0 0 0 0 0 0 0 0 0 0 0 0 0 0 0 0 0 0 0 0 0 0 0 0 0 0 0 0 0 0 0 0 0 0 0 0 0 0 0
0 0 0 0 0 0 0 0 0 0 0 0 0 0 0 0 0 0 0 0 0 0 0 0 0 0 0 0 0 0 0 0 0 0 0 0 0 0 0 0 0 0 0
0 0 0 0 0 0 0 0 0 0 0 0 0 0 0 0 0 0 0 0 0 0 0 0 0 0 0 0 0 0 0 0 0 0 0 0 0 0 0 0 0 0 0
0 0 0 0 0 0 0 0 0 0 0 0 0 0 0 0 0 0 0 0 0 0 0 0 0 0 0 0 0 0 0 0 0 0 0 0 0 0 0 0 0 0 0
0 0 0 0 0 0 0 0 0 0 0 0 0 0 0 0 0 0 0 0 0 0 0 0 0 0 0 0 0 0 0 0 0 0 0 0 0 0 0 0 0 0 0
0 0 0 0 0 0 0 0 0 0 0 0 0 0 0 0 0 0 0 0 0 0 0 0 0 0 0 0 0 0 0 0 0 0 0 0 0 0 0 0 0 0 0
0 0 0 0 0 0 0 0 0 0 0 0 0 0 0 0 0 0 0 0 0 0 0 0 0 0 0 0 0 0 0 0 0 0 0 0 0 0 0 0 0 0 0
0 0 0 0 0 0 0 0 0 0 0 0 0 0 0 0 0 0 0 0 0 0 0 0 0 0 0 0 0 0 0 0 0 0 0 0 0 0 0 0 0 0 0
0 0 0 0 0 0 0 0 0 0 0 0 0 0 0 0 0 0 0 0 0 0 0 0 0 0 0 0 0 0 0 0 0 0 0 0 0 0 0 0 0 0 0
0 0 0 0 0 0 0 0 0 0 0 0 0 0 0 0 0 0 0 0 0 0 0 0 0 0 0 0 0 0 0 0 0 0 0 0 0 0 0 0 0 0 0
0 0 0 0 0 0 0 0 0 0 0 0 0 0 0 0 0 0 0 0 0 0 0 0 0 0 0 0 0 0 0 0 0 0 0 0 0 0 0 0 0 0 0
0 0 0 0 0 0 0 0 0 0 0 0 0 0 0 0 0 0 0 0 0 0 0 0 0 0 0 0 0 0 0 0 0 0 0 0 0 0 0 0 0 0 0
0 0 0 0 0 0 0 0 0 0 0 0 0 0 0 0 0 0 0 0 0 0 0 0 0 0 0 0 0 0 0 0 0 0 0 0 0 0 0 0 0 0 0
0 0 0 0 0 0 0 0 0 0 0 0 0 0 0 0 0 0 0 0 0 0 0 0 0 0 0 0 0 0 0 0 0 0 0 0 0 0 0 0 0 0 0
0 0 0 0 0 0 0 0 0 0 0 0 0 0 0 0 0 0 0 0 0 0 0 0 0 0 0 0 0 0 0 0 0 0 0 0 0 0 0 0 0 0 0
0 0 0 0 0 0 0 0 0 0 0 0 0 0 0 0 0 0 0 0 0 0 0 0 0 0 0 0 0 0 0 0 0 0 0 0 0 0 0 0 0 0 0
0 0 0 0 0 0 0 0 0 0 0 0 0 0 0 0 0 0 0 0 0 0 0 0 0 0 0 0 0 0 0 0 0 0 0 0 0 0 0 0 0 0 0
0 0 0 0 0 0 0 0 0 0 0 0 0 0 0 0 0 0 0 0 0 0 0 0 0 0 0 0 0 0 0 0 0 0 0 0 0 0 0 0 0 0 0
0 0 0 0 0 0 0 0 0 0 0 0 0 0 0 0 0 0 0 0 0 0 0 0 0 0 0 0 0 0 0 0 0 0 0 0 0 0 0 0 0 0 0
0 0 0 0 0 0 0 0 0 0 0 0 0 0 0 0 0 0 0 0 0 0 0 0 0 0 0 0 0 0 0 0 0 0 0 0 0 0 0 0 0 0 0
0 0 0 0 0 0 0 0 0 0 0 0 0 0 0 0 0 0 0 0 0 0 0 0 0 0 0 0 0 0 0 0 0 0 0 0 0 0 0 0 0 0 0
0 0 0 0 0 0 0 0 0 0 0 0 0 0 0 0 0 0 0 0 0 0 0 0 0 0 0 0 0 0 0 0 0 0 0 0 0 0 0 0 0 0 0
0 0 0 0 0 0 0 0 0 0 0 0 0 0 0 0 0 0 0 0 0 0 0 0 0 0 0 0 0 0 0 0 0 0 0 0 0 0 0 0 0 0 0
0 0 0 0 0 0 0 0 0 0 0 0 0 0 0 0 0 0 0 0 0 0 0 0 0 0 0 0 0 0 0 0 0 0 0 0 0 0 0 0 0 0 0
Wind_Speed
7 7 7 7 7 6 4 3 1 1 1 2 2 3 3 3 3 3 5 5 5 6 5 5 5 4 3 3 4 3 3 3 2 3 3 4 5 4 4 4 5 6 6
8 8 8 8 8 6 4 3 2 1 1 2 2 2 3 3 3 3 4 5 5 5 5 5 5 4 3 3 3 3 3 2 2 3 3 2 3 4 4 4 4 5 5
9 10 10 9 8 6 5 3 2 2 1 1 1 2 2 2 1 3 3 4 5 5 5 6 5 4 4 3 3 3 3 3 2 2 2 2 2 1 3 3 4 4 3
9 9 9 9 8 7 5 4 3 1 1 1 2 3 3 4 4 4 4 4 4 5 5 5 5 4 3 3 3 3 3 3 2 2 2 3 2 2 1 2 2 3 4
10 10 10 9 8 7 6 4 3 2 1 1 1 3 3 3 3 4 4 4 4 4 4 5 5 4 3 4 3 3 3 2 3 2 2 2 2 4 3 2 2 2 3
10 10 9 8 8 7 6 5 4 3 2 3 3 3 4 4 5 4 5 4 3 3 4 4 4 4 3 4 3 3 3 3 3 3 2 2 2 2 3 3 3 3 2
11 11 10 10 9 9 8 6 6 4 4 4 3 3 4 5 5 5 4 4 4 3 5 4 4 4 4 4 3 3 3 3 3 3 3 2 3 3 3 3 3 3 2
10 10 11 10 9 9 8 7 6 5 4 4 3 3 3 3 3 4 4 4 4 4 5 5 4 4 4 4 3 3 2 3 3 3 3 3 3 3 3 3 3 3 3
10 10 10 10 9 9 9 8 7 6 5 4 4 4 3 3 4 4 4 3 3 3 5 4 4 4 3 4 4 3 3 3 3 3 3 3 2 3 3 3 3 3 4
10 10 9 9 9 8 8 8 7 6 5 5 4 3 3 3 3 4 3 4 4 4 4 4 4 3 3 3 3 3 3 4 3 3 4 4 3 3 3 3 4 4 4
10 9 9 9 8 8 8 8 7 7 6 5 4 4 4 3 4 3 3 4 4 4 4 4 4 3 3 3 3 4 3 4 4 4 4 4 4 3 3 3 3 4 4
9 9 9 9 9 9 9 9 8 7 6 5 5 5 4 4 4 4 4 4 4 4 4 4 4 4 4 4 3 4 4 4 4 4 4 4 3 4 4 3 4 4 4
9 9 9 9 9 9 9 8 8 7 6 6 5 5 5 4 4 4 4 4 4 4 4 4 4 4 4 4 4 4 4 4 4 4 4 4 4 4 3 4 4 3 3
10 10 10 10 10 9 9 9 8 7 6 6 6 6 5 4 4 4 4 4 4 4 5 4 4 4 4 4 4 4 4 4 4 4 4 4 4 4 4 4 4 4 4
11 12 12 11 11 10 9 9 8 7 7 7 6 5 4 4 4 4 4 4 4 5 5 5 5 4 4 3 5 5 4 4 4 4 4 3 3 5 5 5 5 4 4
13 12 13 12 12 12 11 10 9 8 8 7 6 4 4 4 4 4 4 4 4 5 5 5 5 4 3 2 4 7 5 4 4 4 4 3 4 4 5 6 7 7 7
13 13 13 13 12 12 11 10 9 8 8 7 6 5 4 4 4 3 3 4 4 4 4 5 4 5 2 1 4 6 7 5 4 4 4 3 2 4 4 4 7 7 7
12 13 12 12 11 11 11 10 9 9 8 7 6 5 4 4 3 3 3 4 4 3 3 4 4 4 2 2 5 6 7 5 4 4 4 4 4 3 5 5 5 5 4
11 11 11 12 12 12 11 11 10 9 8 7 6 5 4 4 3 3 3 3 3 3 3 2 3 3 2 2 4 6 5 4 4 3 3 4 4 2 4 6 5 5 4
8 9 10 11 12 12 11 11 10 9 8 7 5 4 4 3 3 3 2 2 2 2 2 1 2 2 3 5 5 6 4 4 3 2 2 0 3 5 5 6 5 5 5
9 10 11 11 11 12 12 12 10 9 7 6 5 4 4 3 2 2 1 1 2 2 2 1 0 1 3 3 5 6 4 4 3 2 2 1 2 4 4 6 4 5 6
9 11 11 10 10 12 12 12 10 8 7 7 6 5 4 3 2 2 1 1 1 1 1 1 0 1 2 4 5 6 5 7 4 3 3 3 4 3 3 3 4 5 5
9 10 11 11 10 11 11 12 10 9 9 8 7 6 5 3 2 2 2 1 0 1 0 0 1 1 2 3 3 3 4 5 3 3 5 5 4 3 1 3 4 4 3
9 10 11 12 11 11 11 10 11 10 10 9 8 6 5 5 4 2 1 1 1 0 1 1 1 1 2 3 4 3 2 1 1 1 2 1 1 2 3 2 2 3 3
9 11 12 12 13 12 11 11 11 11 11 9 8 7 5 5 4 3 3 2 4 4 3 2 2 2 2 5 7 6 5 5 4 4 2 2 3 3 4 4 4 4 4
10 11 12 12 13 14 13 12 12 11 11 9 8 6 5 5 4 5 5 7 5 7 7 6 4 4 5 5 5 6 7 7 6 3 2 3 4 4 4 4 4 4 4
Wind_Direction
196 183 185 181 181 179 178 164 187 91 5 357 343 343 350 340 346 349 350 335 333 332 329 325 330 322 320 316 310 302 287 281 279 265 255 231 230 234 221 224 228 225 227
192 181 184 182 188 180 179 178 164 109 35 18 349 343 340 331 343 330 337 338 337 333 326 331 326 327 319 313 318 313 308 293 276 277 270 240 202 211 216 217 223 227 213
199 185 186 186 187 184 181 177 167 153 120 36 337 321 316 290 316 347 346 342 338 335 332 329 325 325 320 330 323 316 313 308 293 285 287 278 258 221 197 212 216 225 224
197 186 186 187 188 182 177 181 175 176 151 237 317 334 328 343 351 340 339 331 340 342 335 328 327 326 329 328 318 337 313 298 298 290 276 287 311 287 240 203 206 215 223
190 187 188 187 184 174 175 182 181 188 192 258 294 293 316 335 334 329 334 334 349 344 342 338 333 332 328 329 329 320 307 294 292 298 294 285 271 265 266 252 239 225 221
186 186 182 181 178 172 175 182 191 195 203 239 258 282 310 316 323 330 341 336 343 341 353 337 331 331 332 329 326 316 303 296 293 286 278 279 279 276 268 263 257 259 245
186 183 181 183 181 181 183 188 195 204 210 230 250 268 289 302 310 322 338 331 341 348 352 340 331 335 333 326 318 308 311 295 287 285 288 285 281 288 284 278 276 267 266
188 186 187 186 184 186 188 194 201 210 212 229 245 260 274 288 309 312 317 324 334 343 341 334 329 333 328 316 315 304 308 296 285 287 291 284 282 286 284 285 284 271 254
187 189 188 188 187 189 191 196 203 211 214 225 236 249 269 288 297 291 293 311 320 327 330 325 322 329 328 321 314 310 312 299 288 289 281 277 284 281 285 279 270 271 270
188 190 189 190 190 190 190 194 206 214 213 221 231 243 264 276 283 285 296 306 311 321 315 322 326 329 327 321 316 306 318 300 293 284 281 279 279 287 277 275 271 262 268
192 191 189 189 188 188 189 193 202 210 212 219 225 232 244 259 264 265 276 280 288 295 301 312 319 326 326 324 312 305 307 296 292 280 273 271 280 276 268 260 260 259 258
195 191 188 184 186 190 193 197 201 205 208 216 223 232 245 247 255 256 260 267 274 283 290 299 302 316 318 314 310 305 302 301 301 297 285 277 268 272 276 269 259 256 257
194 190 187 189 188 190 195 199 202 205 203 208 221 230 234 242 252 260 262 267 269 273 274 280 290 297 301 306 302 295 294 296 295 295 286 284 279 274 276 273 266 256 252
196 194 192 193 191 192 195 199 200 200 200 203 218 231 240 242 251 257 266 267 272 274 280 282 283 286 289 289 291 290 290 293 294 290 284 282 279 279 283 275 274 264 256
202 199 197 195 192 193 196 197 198 196 197 203 215 227 232 234 245 253 255 262 268 272 278 282 279 278 280 296 307 297 288 289 291 284 279 282 300 316 302 296 289 273 260
207 202 199 196 195 194 194 191 193 194 196 204 212 212 227 230 241 253 260 267 269 274 276 276 277 277 275 333 304 293 287 284 283 293 293 272 236 245 250 268 285 287 276
207 201 198 196 196 194 190 188 191 187 193 199 202 205 215 223 238 247 256 262 265 271 277 276 278 279 285 288 284 277 282 280 287 293 294 297 293 273 272 242 242 250 249
207 200 196 192 192 188 185 183 181 185 191 196 198 199 211 221 231 245 259 267 275 276 277 286 289 291 316 330 295 285 263 269 273 276 285 289 291 302 308 293 281 283 273
203 195 191 185 184 181 179 179 181 185 190 194 198 193 201 210 222 234 249 264 276 279 280 292 303 301 329 30 324 294 263 259 263 268 282 295 295 16 310 285 283 285 282
190 181 179 180 178 175 176 182 184 185 187 187 189 184 188 202 218 235 255 256 254 266 276 294 308 323 342 44 5 314 277 273 272 264 261 192 317 346 313 284 286 289 299
176 172 173 177 177 171 175 185 185 186 178 171 169 169 173 187 201 220 234 246 251 258 260 261 300 7 14 45 30 353 313 308 300 297 299 38 39 330 318 297 298 319 312
173 174 174 173 171 172 179 184 182 170 158 157 161 164 166 168 169 178 212 249 252 238 236 236 92 41 62 36 36 16 359 338 319 325 337 25 27 343 330 322 354 337 303
178 178 176 169 169 176 183 182 168 159 158 159 160 161 157 151 157 164 169 180 218 269 300 29 41 50 38 64 57 30 17 357 333 6 27 15 -0 321 305 39 2 326 309
186 179 176 175 175 175 180 176 159 162 163 163 162 163 162 154 143 128 124 98 46 26 29 37 38 44 48 26 11 3 18 32 336 14 73 118 33 353 15 19 12 1 358
193 187 187 184 177 172 171 166 163 167 169 166 164 164 157 151 140 120 71 61 56 31 9 23 27 18 45 42 22 5 8 2 6 342 1 16 20 20 19 14 14 3 357
199 195 192 187 179 173 170 167 168 172 172 170 167 163 159 156 152 141 119 68 72 73 61 41 23 65 57 56 43 36 30 20 352 331 27 25 19 13 8 1 357 357 357